This demonstration page uses our WeatherBlox Daily Observations layout. Learn more.

Left ArrowRight Arrow

36.19886, -115.1175

Hourly Observations for November 20, 2015

Temp ( °F °C ) Dew Point ( °F °C ) Humidity (%) Winds ( mph kmh ) Pressure ( in mb ) Visibility ( mi km ) Precip ( " mm )
12:53 am 00:53 Clear 52 11.1 31 -0.6 45 45 WNW 10 17 30.07 1018 10 16 0.00 0.00
1:53 am 01:53 Clear 51 10.6 29 -1.7 43 43 WNW 6 9 30.07 1018 10 16 0.00 0.00
2:53 am 02:53 Clear 50 10 30 -1.1 46 46 Calm 30.06 1018 10 16 0.00 0.00
3:53 am 03:53 Clear 48 8.9 29 -1.7 48 48 VRB 3 6 30.06 1018 10 16 0.00 0.00
4:53 am 04:53 Clear 47 8.3 29 -1.7 50 50 NW 3 6 30.08 1019 10 16 0.00 0.00
5:53 am 05:53 Clear 47 8.3 30 -1.1 52 52 W 3 6 30.09 1019 10 16 0.00 0.00
6:53 am 06:53 Sunny 47 8.3 30 -1.1 52 52 WNW 7 11 30.12 1020 10 16 0.00 0.00
7:53 am 07:53 Sunny 54 12.2 31 -0.6 42 42 Calm 30.14 1021 10 16 0.00 0.00
8:53 am 08:53 Sunny 59 15 31 -0.6 35 35 VRB 3 6 30.15 1021 10 16 0.00 0.00
9:53 am 09:53 Sunny 62 16.7 31 -0.6 31 31 S 3 6 30.15 1021 10 16 0.00 0.00
10:53 am 10:53 Sunny 64 17.8 33 0.6 32 32 SE 6 9 30.13 1020 10 16 0.00 0.00
11:53 am 11:53 Sunny 68 20 33 0.6 27 27 SE 5 7 30.11 1020 10 16 0.00 0.00
12:53 pm 12:53 Sunny 70 21.1 32 0 25 25 SSE 5 7 30.09 1019 10 16 0.00 0.00
1:53 pm 13:53 Sunny 72 22.2 31 -0.6 22 22 ESE 6 9 30.08 1019 10 16 0.00 0.00
2:53 pm 14:53 Sunny 73 22.8 32 0 22 22 SSE 7 11 30.07 1018 10 16 0.00 0.00
3:32 pm 15:32 Sunny 75 24 32 0 21 21 ENE 13 20 29.97 1015 10 16 0.00 0.00
3:53 pm 15:53 Sunny 73 22.8 32 0 22 22 ESE 3 6 30.09 1019 10 16 0.00 0.00
4:53 pm 16:53 Clear 73 22.8 31 -0.6 21 21 SSW 3 6 30.11 1020 10 16 0.00 0.00
5:53 pm 17:53 Clear 68 20 31 -0.6 25 25 N 8 13 30.16 1021 10 16 0.00 0.00
6:23 pm 18:23 Clear 68 20 33 0.6 27 27 ENE 18 30 30.06 1018 10 16 0.00 0.00
6:53 pm 18:53 Clear 65 18.3 34 1.1 32 32 E 17 28 30.21 1023 10 16 0.00 0.00
7:53 pm 19:53 Clear 62 16.7 34 1.1 35 35 ESE 8 13 30.22 1024 10 16 0.00 0.00
8:53 pm 20:53 Clear 60 15.6 34 1.1 38 38 SE 7 11 30.23 1024 10 16 0.00 0.00
9:53 pm 21:53 Clear 60 15.6 35 1.7 39 39 Calm 30.24 1024 10 16 0.00 0.00
10:53 pm 22:53 Clear 56 13.3 35 1.7 46 46 WSW 6 9 30.24 1024 10 16 0.00 0.00
11:53 pm 23:53 Clear 55 12.8 34 1.1 45 45 SSW 6 9 30.25 1024 10 16 0.00 0.00

Powered by AerisWeather